Flag for Canada Weather past 2 weeks in Barrie, Ontario, Canada

Now
72 °F

Passing clouds.


Feels Like: 75 °F
Forecast: 49 / 64 °F
Wind: 15 mph from Southwest

Location: Borden

Current Time: Sep 20, 2014 at 11:08:25 PM

Latest Report: Sep 20, 2014 at 10:00 PM


Visibility: 9 mi

Pressure: 29.71 "Hg

Humidity: 69%

Dew point: 61 °F

Location of BarrieLocation

Historic Weather in Barrie — Graph

°F

Barrie temperature yesterday

Maximum temperature yesterday: 59 °F (at 2:00 PM)
Minimum temperature yesterday: 27 °F (at 4:00 AM)
Average temperature yesterday: 48 °F

Past Weeks' High & Low Weather Summary

 TemperatureHumidityPressure
High75 °F (Sep 8, 3:00 PM)100% (Sep 5, 9:00 PM)30.36 "Hg (Sep 5, 9:00 PM)
Low27 °F (Sep 19, 4:00 AM)38% (Sep 8, 6:00 PM)29.49 "Hg (Sep 11, 3:01 AM)
Average56 °F85%30.08 "Hg
* Reported Sep 5 9:00 PM — Sep 20 9:54 PM, Barrie, Weather by CustomWeather, © 2014

Note: Actual official high and low records may vary slightly from our data, if they occured in-between our weather recording intervals... More about our weather records

Advertising

Barrie weather history for previous 24 hours

 ConditionsComfort  
Time TempWeatherWind HumidityBarometerVisibility
9:54 PM
Sep 20
72 °FPassing clouds.16 mph69%29.72 "Hg9 mi
9:00 PM70 °FClear.12 mph73%29.74 "Hg9 mi
8:00 PM70 °FSunny.12 mph73%29.75 "Hg9 mi
7:02 PM70 °FSunny.10 mph73%29.76 "Hg9 mi
6:00 PM72 °FSunny.9 mph73%29.77 "Hg9 mi
5:01 PM70 °FLight rain. Partly sunny.10 mph73%29.77 "Hg9 mi
4:00 PM68 °FPassing clouds.7 mph88%29.79 "Hg9 mi
3:46 PM68 °FScattered clouds.6 mph88%29.80 "Hg9 mi
3:00 PM66 °FLight rain. Light fog.7 mph83%29.82 "Hg7 mi
2:00 PM73 °FScattered clouds.18 mph57%29.82 "Hg9 mi
1:00 PM73 °FPassing clouds.15 mph57%29.83 "Hg9 mi
9:00 AM59 °FPartly sunny.10 mph94%29.95 "Hg9 mi
8:00 AM55 °FPassing clouds.7 mph100%29.97 "Hg7 mi
7:00 AM52 °FClear.No wind100%29.97 "Hg8 mi
6:00 AM46 °FClear.No wind100%29.99 "Hg4 mi
5:00 AM45 °FClear.2 mph100%30.01 "Hg8 mi
4:56 AM43 °FClear.2 mph100%29.99 "Hg9 mi
4:00 AM41 °FClear.2 mph100%30.02 "Hg4 mi
3:00 AM46 °FClear.2 mph100%30.02 "Hg4 mi
2:00 AM41 °FClear.3 mph100%30.04 "Hg3 mi
1:52 AM41 °FClear.No wind100%30.04 "Hg3 mi
1:00 AM45 °FClear.2 mph100%30.06 "Hg6 mi
12:00 AM43 °FClear.5 mph100%30.08 "Hg9 mi
11:00 PM
Sep 19
46 °FClear.6 mph93%30.11 "Hg9 mi
Weather by CustomWeather, © 2014

See weather overviewHow to use our weather pages